Weather History for North Island, CA

Change the Weather History Date:

Tuesday, May 6, 2014

  Actual Average Record
Temperature  
Mean Temperature 66 °F -  
Max Temperature 71 °F 65 °F 86 °F (2007)
Min Temperature 63 °F 55 °F 53 °F (1999)
Cooling Degree Days 2    
Growing Degree Days 16 (Base 50)    
Moisture  
Dew Point 48 °F    
Average Humidity 51    
Maximum Humidity 63    
Minimum Humidity 42    
Precipitation  
Precipitation 0.00 in - - ()
Sea Level Pressure  
Sea Level Pressure 29.92 in    
Wind  
Wind Speed 13 mph (West)    
Max Wind Speed 17 mph    
Max Gust Speed 24 mph    
Visibility 10 miles    
Events      
Averages and records for this station are not official NWS values.
T = Trace of Precipitation, MM = Missing Value Source: NWS Daily Summary

Daily Weather History Graph

Daily Weather History Graph

Search for Another Location

Airport:

Trip Planner

Search our weather history database for the weather conditions in past years. The results will help you decide how hot, cold, wet, or windy it might be!

Date:

Astronomy

May. 06, 2014 Rise Set
Actual Time 5:57 AM PDT 7:34 PM PDT
Civil Twilight 5:30 AM PDT 8:00 PM PDT
Nautical Twilight 4:58 AM PDT 8:32 PM PDT
Astronomical Twilight 4:25 AM PDT 9:06 PM PDT
Moon 12:13 PM PDT (5/6) 12:59 AM PDT (5/6)
Length of Visible Light 14h 30m
Length of Day
13h 37m
Waxing Crescent, 47% of the Moon is Illuminated
May 6
Waxing Crescent
May 6
First Quarter
May 14
Full
May 21
Last Quarter
May 28
New

Hourly Weather History & Observations

Time (PDT) Temp. Dew Point Humidity Pressure Visibility Wind Dir Wind Speed Gust Speed Precip Events Conditions
12:52 AM 64.9 °F 51.1 °F 61% 29.94 in 10.0 mi West 11.5 mph - N/A   Mostly Cloudy
4:52 AM 63.0 °F 48.9 °F 60% 29.92 in 10.0 mi West 13.8 mph - N/A   Mostly Cloudy
5:52 AM 63.0 °F 48.0 °F 58% 29.93 in 10.0 mi West 12.7 mph - N/A   Mostly Cloudy
6:52 AM 63.0 °F 46.9 °F 56% 29.94 in 10.0 mi West 10.4 mph - N/A   Mostly Cloudy
7:52 AM 64.0 °F 48.0 °F 56% 29.94 in 10.0 mi West 15.0 mph 21.9 mph N/A   Mostly Cloudy
8:52 AM 66.0 °F 46.0 °F 48% 29.94 in 10.0 mi West 15.0 mph - N/A   Mostly Cloudy
9:52 AM 68.0 °F 46.0 °F 45% 29.94 in 10.0 mi West 16.1 mph - N/A   Mostly Cloudy
10:52 AM 68.0 °F 46.9 °F 47% 29.94 in 10.0 mi WSW 15.0 mph 20.7 mph N/A   Mostly Cloudy
11:52 AM 70.0 °F 46.0 °F 42% 29.94 in 10.0 mi WSW 15.0 mph 21.9 mph N/A   Mostly Cloudy
12:52 PM 70.0 °F 46.9 °F 44% 29.93 in 10.0 mi West 16.1 mph - N/A   Mostly Cloudy
1:52 PM 70.0 °F 46.9 °F 44% 29.93 in 10.0 mi West 13.8 mph 24.2 mph N/A   Mostly Cloudy
2:52 PM 70.0 °F 46.0 °F 42% 29.91 in 10.0 mi WNW 15.0 mph 24.2 mph N/A   Mostly Cloudy
3:52 PM 70.0 °F 46.9 °F 44% 29.90 in 10.0 mi West 16.1 mph 24.2 mph N/A   Mostly Cloudy
4:52 PM 70.0 °F 46.0 °F 42% 29.89 in 10.0 mi WNW 17.3 mph - N/A   Mostly Cloudy
5:52 PM 68.0 °F 45.0 °F 43% 29.89 in 10.0 mi WNW 16.1 mph 24.2 mph N/A   Mostly Cloudy
6:52 PM 64.9 °F 46.9 °F 52% 29.89 in 10.0 mi WNW 16.1 mph - N/A   Mostly Cloudy
7:52 PM 64.0 °F 48.0 °F 56% 29.89 in 10.0 mi West 13.8 mph - N/A   Mostly Cloudy
8:52 PM 64.0 °F 48.9 °F 58% 29.89 in 10.0 mi WNW 13.8 mph - N/A   Mostly Cloudy
9:52 PM 64.0 °F 48.9 °F 58% 29.89 in 10.0 mi West 10.4 mph - N/A   Mostly Cloudy
10:52 PM 64.0 °F 50.0 °F 60% 29.90 in 10.0 mi West 9.2 mph - N/A   Mostly Cloudy
11:52 PM 63.0 °F 50.0 °F 63% 29.89 in 9.0 mi Calm Calm - N/A   Mostly Cloudy